Location: Unspecified
(35.7250°N, 0.0000°E)
Time: 17:45:04
(UTC+00:00)

Tiros 1 - Pass Details

Date: 27 June 2019
Orbit: 631 x 664 km, 48.4° (Epoch: 23 August)

Event Time Altitude Azimuth Distance (km) Brightness Sun altitude
Rises 03:16:31 0° 308° (NW) 2,930 10.4 -15.3°
Reaches altitude 10° 03:18:53 10° 311° (NW) 2,016 9.6 -15.0°
Maximum altitude 03:23:29 67° 34° (NNE) 686 7.5 -14.3°
Drops below altitude 10° 03:28:04 10° 117° (ESE) 2,000 9.9 -13.6°
Sets 03:30:23 0° 120° (ESE) 2,905 10.7 -13.2°
